Time,TemperatureF,DewpointF,PressureIn,WindDirection,WindDirectionDegrees,WindSpeedMPH,WindSpeedGustMPH,Humidity,HourlyPrecipIn,Conditions,Clouds,dailyrainin,SolarRadiationWatts/m^2,SoftwareType,DateUTC
2013-11-29 00:21:00,34.0,26.0,-100.00,ENE,74,1.0,2.0,72,-99.99,,,-99.99,0.000000,,2013-11-29 08:21:00,
2013-11-29 00:30:00,34.0,23.0,-100.00,WNW,294,0.0,1.0,64,-99.99,,,-99.99,0.000000,,2013-11-29 08:30:00,
2013-11-29 01:21:00,34.0,23.0,-100.00,WNW,294,0.0,1.0,64,-99.99,,,-99.99,0.000000,,2013-11-29 09:21:00,
2013-11-29 01:30:00,35.0,23.0,-100.00,North,-999,0.0,0.0,60,-99.99,,,-99.99,0.000000,,2013-11-29 09:30:00,
2013-11-29 02:23:00,35.0,23.0,-100.00,North,-999,0.0,0.0,60,-99.99,,,-99.99,0.000000,,2013-11-29 10:23:00,
2013-11-29 02:30:00,34.0,24.0,-100.00,North,0,0.0,0.0,64,-99.99,,,-99.99,0.000000,,2013-11-29 10:30:00,
2013-11-29 03:21:00,34.0,24.0,-100.00,North,0,0.0,0.0,64,-99.99,,,-99.99,0.000000,,2013-11-29 11:21:00,
2013-11-29 03:30:00,34.0,24.0,-100.00,North,0,1.0,1.0,66,-99.99,,,-99.99,0.000000,,2013-11-29 11:30:00,
2013-11-29 04:22:00,34.0,24.0,-100.00,North,0,1.0,1.0,66,-99.99,,,-99.99,0.000000,,2013-11-29 12:22:00,
2013-11-29 04:30:00,34.0,23.0,-100.00,North,9,0.0,1.0,63,-99.99,,,-99.99,0.000000,,2013-11-29 12:30:00,
2013-11-29 05:22:00,34.0,23.0,-100.00,North,9,0.0,1.0,63,-99.99,,,-99.99,0.000000,,2013-11-29 13:22:00,
2013-11-29 05:30:00,35.0,23.0,-100.00,ENE,76,1.0,1.0,61,-99.99,,,-99.99,0.000000,,2013-11-29 13:30:00,
2013-11-29 06:22:00,35.0,23.0,-100.00,ENE,76,1.0,1.0,61,-99.99,,,-99.99,0.000000,,2013-11-29 14:22:00,
2013-11-29 07:30:00,34.0,22.0,-100.00,NE,54,3.0,7.0,61,-99.99,,,-99.99,14.000000,,2013-11-29 15:30:00,
2013-11-29 08:23:00,34.0,22.0,-100.00,NE,54,3.0,7.0,61,-99.99,,,-99.99,14.000000,,2013-11-29 16:23:00,
2013-11-29 08:30:00,36.0,21.0,-100.00,NE,47,6.0,10.0,53,-99.99,,,-99.99,65.000000,,2013-11-29 16:30:00,
2013-11-29 09:22:00,36.0,21.0,-100.00,NE,47,6.0,10.0,53,-99.99,,,-99.99,65.000000,,2013-11-29 17:22:00,
2013-11-29 12:30:00,44.0,19.0,-100.00,ESE,122,5.0,9.0,36,-99.99,,,-99.99,362.000000,,2013-11-29 20:30:00,
2013-11-29 13:21:00,44.0,19.0,-100.00,ESE,122,5.0,9.0,36,-99.99,,,-99.99,362.000000,,2013-11-29 21:21:00,
2013-11-29 15:30:00,42.0,29.0,-100.00,NW,326,1.0,2.0,59,-99.99,,,-99.99,49.000000,,2013-11-29 23:30:00,
2013-11-29 16:21:00,42.0,29.0,-100.00,NW,326,1.0,2.0,59,-99.99,,,-99.99,49.000000,,2013-11-30 00:21:00,
2013-11-29 16:30:00,39.0,26.0,-100.00,NNE,19,1.0,2.0,60,-99.99,,,-99.99,15.000000,,2013-11-30 00:30:00,
2013-11-29 17:21:00,39.0,26.0,-100.00,NNE,19,1.0,2.0,60,-99.99,,,-99.99,15.000000,,2013-11-30 01:21:00,
2013-11-29 17:30:00,35.0,28.0,-100.00,NNW,345,3.0,5.0,77,-99.99,,,-99.99,0.000000,,2013-11-30 01:30:00,
2013-11-29 18:21:00,35.0,28.0,-100.00,NNW,345,3.0,5.0,77,-99.99,,,-99.99,0.000000,,2013-11-30 02:21:00,
2013-11-29 18:30:00,34.0,28.0,-100.00,North,4,1.0,2.0,78,-99.99,,,-99.99,0.000000,,2013-11-30 02:30:00,
2013-11-29 19:21:00,34.0,28.0,-100.00,North,4,1.0,2.0,78,-99.99,,,-99.99,0.000000,,2013-11-30 03:21:00,
2013-11-29 19:30:00,37.0,20.0,-100.00,NE,56,5.0,6.0,50,-99.99,,,-99.99,0.000000,,2013-11-30 03:30:00,
2013-11-29 20:23:00,37.0,20.0,-100.00,NE,56,5.0,6.0,50,-99.99,,,-99.99,0.000000,,2013-11-30 04:23:00,
2013-11-29 20:30:00,38.0,17.0,-100.00,ENE,59,4.0,8.0,42,-99.99,,,-99.99,0.000000,,2013-11-30 04:30:00,
2013-11-29 21:22:00,38.0,17.0,-100.00,ENE,59,4.0,8.0,42,-99.99,,,-99.99,0.000000,,2013-11-30 05:22:00,
2013-11-29 21:30:00,38.0,15.0,-100.00,ENE,70,4.0,6.0,39,-99.99,,,-99.99,0.000000,,2013-11-30 05:30:00,
2013-11-29 22:22:00,38.0,15.0,-100.00,ENE,70,4.0,6.0,39,-99.99,,,-99.99,0.000000,,2013-11-30 06:22:00,
2013-11-29 22:30:00,38.0,14.0,-100.00,ENE,77,3.0,5.0,37,-99.99,,,-99.99,0.000000,,2013-11-30 06:30:00,
2013-11-29 23:21:00,38.0,14.0,-100.00,ENE,77,3.0,5.0,37,-99.99,,,-99.99,0.000000,,2013-11-30 07:21:00,